cover

Kid Vibes, Mak Others - Sunday Without You (Extended Mix)

Get it on iTunes StoreListen on Apple Music

Trackname / Key / BPM / Publish dateArtists, Remixers / Label
128 bpm, 8A / A minor, 2016-03-21, Progressive House,  0  34

Tracks in release Spring Workout Power 2016

#Trackname / Key / BPM / Publish dateArtists, Remixers / Label
1 130 bpm, 11A / F# minor, 2016-03-21, Progressive House,  0  34
2 128 bpm, 8A / A minor, 2016-03-21, Progressive House,  0  34
3 128 bpm, 4A / F minor, 2016-03-21, Progressive House,  0  34
4 150 bpm, 11A / F# minor, 2016-03-21, Hard Dance,  0  34
5 128 bpm, 10A / B minor, 2016-03-21, Progressive House,  0  34
6 128 bpm, 8A / A minor, 2016-03-21, Progressive House,  0  34
7 128 bpm, 6A / G minor, 2016-03-21, Progressive House,  0  34
8 128 bpm, 4A / F minor, 2016-03-21, Progressive House,  0  34
9 93 bpm, 5B / Eb major, 2016-03-21, Progressive House,  0  34
10 127 bpm, 5A / C minor, 2016-03-21, Progressive House,  0  34
11 128 bpm, 4A / F minor, 2016-03-21, Progressive House,  0  34
12 130 bpm, 12A / Db minor, 2016-03-21, Progressive House,  0  34
13 128 bpm, 6A / G minor, 2016-03-21, Progressive House,  0  34
14 130 bpm, 6A / G minor, 2016-03-21, Progressive House,  0  34
15 128 bpm, 8B / C major, 2016-03-21, Progressive House,  0  34
16 128 bpm, 9A / E minor, 2016-03-21, Progressive House,  0  34
17 128 bpm, 7B / F major, 2016-03-21, Progressive House,  0  34
18 128 bpm, 1A / Ab minor, 2016-03-21, Progressive House,  0  34
19 128 bpm, 7A / D minor, 2016-03-21, Progressive House,  0  34
20 128 bpm, 7B / F major, 2016-03-21, Progressive House,  0  34
21 130 bpm, 11B / A major, 2016-03-21, Progressive House,  0  34
22 128 bpm, 9A / E minor, 2016-03-21, Progressive House,  0  34
23 128 bpm, 7A / D minor, 2016-03-21, Progressive House,  0  34
24 132 bpm, 5B / Eb major, 2016-03-21, Progressive House,  0  34
25 126 bpm, 6B / Bb major, 2016-03-21, Progressive House,  0  34
26 128 bpm, 12B / E major, 2016-03-21, Progressive House,  0  34
27 126 bpm, 6A / G minor, 2016-03-21, Progressive House,  0  34
28 128 bpm, 7B / F major, 2016-03-21, Progressive House,  0  34
29 128 bpm, 3B / Db major, 2016-03-21, Progressive House,  0  34
30 128 bpm, 9A / E minor, 2016-03-21, Progressive House,  0  34
31 117 bpm, 1B / B major, 2016-03-21, Progressive House,  0  34
32 128 bpm, 10A / B minor, 2016-03-21, Progressive House,  0  34
33 128 bpm, 9A / E minor, 2016-03-21, Progressive House,  0  34
34 128 bpm, 1A / Ab minor, 2016-03-21, Progressive House,  0  34
×

Sign in

Sign in to access your personalized pages, follow artists and labels you love, and create playlists fromyour favorite tracks.

Please wait...